EW5069 Weather Reports


Display with metric or nautical units.
time (UTC)temp
F
wind
direction
speed
MPH
gust
MPH
rain 1hr
in
rain 24hr
in
rain mn
in
humidity
%
barometer
mb
20260503174510 57 360 0.0 0.0 0.00 0.00 0.00 56 1015.5
20260503173004 57 360 0.0 0.0 0.00 0.00 0.00 57 1015.7
20260503171603 58 360 0.0 0.0 0.00 0.00 0.00 57 1015.9
20260503081529 39 360 0.0 0.0 0.00 0.00 0.00 77 1017.4
20260503071526 38 188 0.0 0.0 0.00 0.00 0.00 76 1017.6
20260503054517 39 360 0.0 0.0 0.00 0.00 0.00 76 1018.3
20260503053018 39 360 0.0 0.0 0.00 0.00 0.00 75 1018.4
20260503051518 39 360 0.0 0.0 0.00 0.00 0.00 76 1018.5
20260503050012 39 360 0.0 0.0 0.00 0.00 0.00 77 1018.6
20260503044522 39 360 0.0 0.0 0.00 0.00 0.00 76 1018.6
20260503043011 39 190 0.0 0.0 0.00 0.00 0.00 77 1018.6
20260503041508 39 5 0.0 0.0 0.00 0.00 0.00 79 1018.5
20260503040004 38 5 0.0 0.0 0.00 0.00 0.00 79 1018.6
20260503034504 39 360 0.0 0.0 0.00 0.00 0.00 78 1018.7
20260503033004 39 360 0.0 0.0 0.00 0.00 0.00 76 1018.6
20260503031503 40 355 0.0 0.0 0.00 0.00 0.00 75 1018.6
20260503030003 41 355 0.0 0.0 0.00 0.00 0.00 71 1018.7
20260503024502 42 355 0.0 0.0 0.00 0.00 0.00 67 1018.8
20260503023005 44 355 0.0 0.0 0.00 0.00 0.00 60 1018.7
20260503021608 44 355 0.0 0.0 0.00 0.00 0.00 56 1018.7
20260503020113 43 355 0.0 0.0 0.00 0.00 0.00 56 1018.6
20260503014600 43 355 0.0 0.0 0.00 0.00 0.00 56 1018.5
20260503013109 44 355 0.0 0.0 0.00 0.00 0.00 57 1018.4
20260503011609 45 355 0.0 0.0 0.00 0.00 0.00 54 1018.4
20260503010106 45 355 0.0 0.0 0.00 0.00 0.00 58 1018.4
20260503004559 46 330 0.0 0.0 0.00 0.00 0.00 61 1018.3
20260503003105 47 330 0.0 0.0 0.00 0.00 0.00 55 1018.3
20260503001601 49 330 0.0 0.0 0.00 0.00 0.00 50 1018.2
20260503000110 49 325 0.0 0.0 0.00 0.00 0.00 48 1018.1
20260502234556 50 338 0.0 0.0 0.00 0.00 0.00 45 1018.1
20260502233100 50 328 0.0 0.0 0.00 0.00 0.00 45 1018.1
20260502231553 50 311 0.0 0.0 0.00 0.00 0.00 43 1018.2
20260502230052 51 360 0.0 0.0 0.00 0.00 0.00 45 1018.2
20260502224551 51 360 0.0 0.0 0.00 0.00 0.00 45 1018.1
20260502223049 51 327 0.0 0.0 0.00 0.00 0.00 47 1018.1
20260502221548 50 327 0.0 0.0 0.00 0.00 0.00 46 1018.2
20260502220048 50 360 0.0 0.0 0.00 0.00 0.00 50 1018.2
20260502214546 50 316 0.0 0.0 0.00 0.00 0.00 46 1018.2
20260502213047 50 338 0.0 0.0 0.00 0.00 0.00 50 1018.2
20260502211552 49 360 0.0 0.0 0.00 0.00 0.00 51 1018.2
20260502210043 51 360 0.0 0.0 0.00 0.00 0.00 51 1018.2
20260502204542 51 360 0.0 0.0 0.00 0.00 0.00 51 1018.3
20260502203040 51 360 0.0 0.0 0.00 0.00 0.00 52 1018.3
20260502201535 50 327 0.0 0.0 0.00 0.00 0.00 50 1018.6
20260502200039 49 284 0.0 0.0 0.00 0.00 0.00 53 1018.7
20260502194534 49 360 0.0 0.0 0.00 0.00 0.00 55 1019.0
20260502193032 49 360 0.0 0.0 0.00 0.00 0.00 54 1019.0
20260502191529 48 308 0.0 0.0 0.00 0.00 0.00 53 1019.3
20260502190027 48 360 0.0 0.0 0.00 0.00 0.00 55 1019.4
20260502184531 48 17 0.0 0.0 0.00 0.00 0.00 52 1019.4
20260502183026 48 326 0.0 0.0 0.00 0.00 0.00 59 1019.5
20260502181522 47 342 0.0 0.0 0.00 0.00 0.00 60 1019.6